Year,Month,Day,Hour,Minute,Value (Times are PST for temperature in C)
2015,06,28,00,00,20.50
2015,06,28,00,01,20.40
2015,06,28,00,02,20.40
2015,06,28,00,03,20.40
2015,06,28,00,04,20.40
2015,06,28,00,05,20.40
2015,06,28,00,06,20.40
2015,06,28,00,07,20.40
2015,06,28,00,08,20.30
2015,06,28,00,09,20.30
2015,06,28,00,10,20.30
2015,06,28,00,11,20.20
2015,06,28,00,12,20.20
2015,06,28,00,13,20.20
2015,06,28,00,14,20.20
2015,06,28,00,15,20.20
2015,06,28,00,16,20.10
2015,06,28,00,17,20.10
2015,06,28,00,18,20.10
2015,06,28,00,19,20.00
2015,06,28,00,20,19.90
2015,06,28,00,21,19.90
2015,06,28,00,22,19.90
2015,06,28,00,23,19.90
2015,06,28,00,24,19.90
2015,06,28,00,25,19.90
2015,06,28,00,26,19.90
2015,06,28,00,27,19.90
2015,06,28,00,28,20.00
2015,06,28,00,29,20.10
2015,06,28,00,30,20.10
2015,06,28,00,31,20.10
2015,06,28,00,32,20.10
2015,06,28,00,33,20.10
2015,06,28,00,34,20.10
2015,06,28,00,35,20.10
2015,06,28,00,36,20.10
2015,06,28,00,37,20.10
2015,06,28,00,38,20.10
2015,06,28,00,39,20.10
2015,06,28,00,40,20.10
2015,06,28,00,41,20.10
2015,06,28,00,42,20.00
2015,06,28,00,43,19.90
2015,06,28,00,44,19.90
2015,06,28,00,45,19.90
2015,06,28,00,46,19.90
2015,06,28,00,47,19.90
2015,06,28,00,48,19.90
2015,06,28,00,49,19.90
2015,06,28,00,50,19.90
2015,06,28,00,51,19.90
2015,06,28,00,52,19.90
2015,06,28,00,53,19.90
2015,06,28,00,54,19.90
2015,06,28,00,55,19.90
2015,06,28,00,56,19.90
2015,06,28,00,57,19.80
2015,06,28,00,58,19.80
2015,06,28,00,59,19.80
2015,06,28,01,00,19.80
2015,06,28,01,01,19.70
2015,06,28,01,02,19.70
2015,06,28,01,03,19.70
2015,06,28,01,04,19.70
2015,06,28,01,05,19.60
2015,06,28,01,06,19.60
2015,06,28,01,07,19.60
2015,06,28,01,08,19.60
2015,06,28,01,09,19.60
2015,06,28,01,10,19.60
2015,06,28,01,11,19.60
2015,06,28,01,12,19.50
2015,06,28,01,13,19.60
2015,06,28,01,14,19.60
2015,06,28,01,15,19.60
2015,06,28,01,16,19.60
2015,06,28,01,17,19.60
2015,06,28,01,18,19.60
2015,06,28,01,19,19.60
2015,06,28,01,20,19.60
2015,06,28,01,21,19.60
2015,06,28,01,22,19.60
2015,06,28,01,23,19.60
2015,06,28,01,24,19.60
2015,06,28,01,25,19.60
2015,06,28,01,26,19.60
2015,06,28,01,27,19.60
2015,06,28,01,28,19.60
2015,06,28,01,29,19.60
2015,06,28,01,30,19.60
2015,06,28,01,31,19.60
2015,06,28,01,32,19.60
2015,06,28,01,33,19.60
2015,06,28,01,34,19.60
2015,06,28,01,35,19.60
2015,06,28,01,36,19.50
2015,06,28,01,37,19.50
2015,06,28,01,38,19.50
2015,06,28,01,39,19.50
2015,06,28,01,40,19.50
2015,06,28,01,41,19.50
2015,06,28,01,42,19.50
2015,06,28,01,43,19.50
2015,06,28,01,44,19.40
2015,06,28,01,45,19.40
2015,06,28,01,46,19.40
2015,06,28,01,47,19.40
2015,06,28,01,48,19.40
2015,06,28,01,49,19.40
2015,06,28,01,50,19.40
2015,06,28,01,51,19.40
2015,06,28,01,52,19.40
2015,06,28,01,53,19.40
2015,06,28,01,54,19.40
2015,06,28,01,55,19.40
2015,06,28,01,56,19.40
2015,06,28,01,57,19.40
2015,06,28,01,58,19.30
2015,06,28,01,59,19.30
2015,06,28,02,00,19.30
2015,06,28,02,01,19.30
2015,06,28,02,02,19.20
2015,06,28,02,03,19.20
2015,06,28,02,04,19.20
2015,06,28,02,05,19.20
2015,06,28,02,06,19.20
2015,06,28,02,07,19.20
2015,06,28,02,08,19.10
2015,06,28,02,09,19.10
2015,06,28,02,10,19.10
2015,06,28,02,11,19.10
2015,06,28,02,12,19.10
2015,06,28,02,13,19.10
2015,06,28,02,14,19.10
2015,06,28,02,15,19.20
2015,06,28,02,16,19.20
2015,06,28,02,17,19.20
2015,06,28,02,18,19.20
2015,06,28,02,19,19.10
2015,06,28,02,20,19.10
2015,06,28,02,21,19.10
2015,06,28,02,22,19.10
2015,06,28,02,23,19.20
2015,06,28,02,24,19.20
2015,06,28,02,25,19.20
2015,06,28,02,26,19.10
2015,06,28,02,27,19.10
2015,06,28,02,28,19.10
2015,06,28,02,29,19.10
2015,06,28,02,30,19.10
2015,06,28,02,31,19.10
2015,06,28,02,32,19.10
2015,06,28,02,33,19.10
2015,06,28,02,34,19.10
2015,06,28,02,35,19.00
2015,06,28,02,36,18.90
2015,06,28,02,37,18.90
2015,06,28,02,38,18.90
2015,06,28,02,39,18.90
2015,06,28,02,40,18.90
2015,06,28,02,41,18.90
2015,06,28,02,42,18.90
2015,06,28,02,43,18.90
2015,06,28,02,44,18.90
2015,06,28,02,45,18.90
2015,06,28,02,46,18.90
2015,06,28,02,47,18.90
2015,06,28,02,48,18.90
2015,06,28,02,49,18.90
2015,06,28,02,50,18.90
2015,06,28,02,51,18.90
2015,06,28,02,52,18.90
2015,06,28,02,53,18.90
2015,06,28,02,54,18.90
2015,06,28,02,55,18.90
2015,06,28,02,56,18.90
2015,06,28,02,57,19.00
2015,06,28,02,58,19.10
2015,06,28,02,59,19.10
2015,06,28,03,00,19.10
2015,06,28,03,01,19.10
2015,06,28,03,02,19.10
2015,06,28,03,03,19.10
2015,06,28,03,04,19.10
2015,06,28,03,05,19.10
2015,06,28,03,06,19.10
2015,06,28,03,07,19.10
2015,06,28,03,08,19.10
2015,06,28,03,09,19.10
2015,06,28,03,10,19.20
2015,06,28,03,11,19.20
2015,06,28,03,12,19.20
2015,06,28,03,13,19.20
2015,06,28,03,14,19.20
2015,06,28,03,15,19.20
2015,06,28,03,16,19.20
2015,06,28,03,17,19.20
2015,06,28,03,18,19.10
2015,06,28,03,19,19.10
2015,06,28,03,20,19.10
2015,06,28,03,21,19.10
2015,06,28,03,22,19.10
2015,06,28,03,23,19.20
2015,06,28,03,24,19.20
2015,06,28,03,25,19.20
2015,06,28,03,26,19.30
2015,06,28,03,27,19.30
2015,06,28,03,28,19.40
2015,06,28,03,29,19.40
2015,06,28,03,30,19.50
2015,06,28,03,31,19.50
2015,06,28,03,32,19.50
2015,06,28,03,33,19.60
2015,06,28,03,34,19.60
2015,06,28,03,35,19.60
2015,06,28,03,36,19.60
2015,06,28,03,37,19.60
2015,06,28,03,38,19.60
2015,06,28,03,39,19.60
2015,06,28,03,40,19.60
2015,06,28,03,41,19.60
2015,06,28,03,42,19.60
2015,06,28,03,43,19.60
2015,06,28,03,44,19.60
2015,06,28,03,45,19.60
2015,06,28,03,46,19.60
2015,06,28,03,47,19.60
2015,06,28,03,48,19.60
2015,06,28,03,49,19.60
2015,06,28,03,50,19.60
2015,06,28,03,51,19.60
2015,06,28,03,52,19.60
2015,06,28,03,53,19.60
2015,06,28,03,54,19.60
2015,06,28,03,55,19.60
2015,06,28,03,56,19.60
2015,06,28,03,57,19.60
2015,06,28,03,58,19.60
2015,06,28,03,59,19.60
2015,06,28,04,00,19.60
2015,06,28,04,01,19.50
2015,06,28,04,02,19.50
2015,06,28,04,03,19.50
2015,06,28,04,04,19.50
2015,06,28,04,05,19.50
2015,06,28,04,06,19.40
2015,06,28,04,07,19.40
2015,06,28,04,08,19.40
2015,06,28,04,09,19.40
2015,06,28,04,10,19.40
2015,06,28,04,11,19.40
2015,06,28,04,12,19.40
2015,06,28,04,13,19.30
2015,06,28,04,14,19.30
2015,06,28,04,15,19.30
2015,06,28,04,16,19.30
2015,06,28,04,17,19.30
2015,06,28,04,18,19.30
2015,06,28,04,19,19.20
2015,06,28,04,20,19.20
2015,06,28,04,21,19.20
2015,06,28,04,22,19.20
2015,06,28,04,23,19.20
2015,06,28,04,24,19.20
2015,06,28,04,25,19.20
2015,06,28,04,26,19.20
2015,06,28,04,27,19.20
2015,06,28,04,28,19.20
2015,06,28,04,29,19.10
2015,06,28,04,30,19.10
2015,06,28,04,31,19.10
2015,06,28,04,32,19.10
2015,06,28,04,33,19.10
2015,06,28,04,34,19.10
2015,06,28,04,35,19.10
2015,06,28,04,36,19.10
2015,06,28,04,37,19.00
2015,06,28,04,38,18.90
2015,06,28,04,39,18.90
2015,06,28,04,40,18.90
2015,06,28,04,41,18.90
2015,06,28,04,42,18.90
2015,06,28,04,43,18.90
2015,06,28,04,44,18.90
2015,06,28,04,45,18.90
2015,06,28,04,46,18.90
2015,06,28,04,47,18.80
2015,06,28,04,48,18.80
2015,06,28,04,49,18.80
2015,06,28,04,50,18.80
2015,06,28,04,51,18.80
2015,06,28,04,52,18.80
2015,06,28,04,53,18.80
2015,06,28,04,54,18.80
2015,06,28,04,55,18.80
2015,06,28,04,56,18.80
2015,06,28,04,57,18.80
2015,06,28,04,58,18.80
2015,06,28,04,59,18.90
2015,06,28,05,00,18.90
2015,06,28,05,01,18.90
2015,06,28,05,02,18.90
2015,06,28,05,03,18.90
2015,06,28,05,04,18.90
2015,06,28,05,05,18.90
2015,06,28,05,06,18.90
2015,06,28,05,07,18.90
2015,06,28,05,08,18.90
2015,06,28,05,09,18.90
2015,06,28,05,10,19.00
2015,06,28,05,11,19.00
2015,06,28,05,12,18.90
2015,06,28,05,13,18.90
2015,06,28,05,14,18.90
2015,06,28,05,15,19.00
2015,06,28,05,16,19.10
2015,06,28,05,17,19.10
2015,06,28,05,18,19.10
2015,06,28,05,19,19.10
2015,06,28,05,20,19.10
2015,06,28,05,21,19.10
2015,06,28,05,22,19.10
2015,06,28,05,23,19.10
2015,06,28,05,24,19.10
2015,06,28,05,25,19.10
2015,06,28,05,26,19.10
2015,06,28,05,27,19.10
2015,06,28,05,28,19.10
2015,06,28,05,29,19.10
2015,06,28,05,30,19.10
2015,06,28,05,31,19.10
2015,06,28,05,32,19.10
2015,06,28,05,33,19.10
2015,06,28,05,34,19.10
2015,06,28,05,35,19.10
2015,06,28,05,36,19.10
2015,06,28,05,37,19.10
2015,06,28,05,38,19.10
2015,06,28,05,39,19.10
2015,06,28,05,40,19.10
2015,06,28,05,41,19.10
2015,06,28,05,42,19.10
2015,06,28,05,43,19.10
2015,06,28,05,44,19.10
2015,06,28,05,45,19.10
2015,06,28,05,46,19.10
2015,06,28,05,47,19.10
2015,06,28,05,48,19.10
2015,06,28,05,49,19.10
2015,06,28,05,50,19.10
2015,06,28,05,51,19.10
2015,06,28,05,52,19.10
2015,06,28,05,53,19.20
2015,06,28,05,54,19.30
2015,06,28,05,55,19.30
2015,06,28,05,56,19.40
2015,06,28,05,57,19.40
2015,06,28,05,58,19.50
2015,06,28,05,59,19.50
2015,06,28,06,00,19.60
2015,06,28,06,01,19.60
2015,06,28,06,02,19.60
2015,06,28,06,03,19.70
2015,06,28,06,04,19.70
2015,06,28,06,05,19.70
2015,06,28,06,06,19.70
2015,06,28,06,07,19.80
2015,06,28,06,08,19.80
2015,06,28,06,09,19.80
2015,06,28,06,10,19.80
2015,06,28,06,11,19.80
2015,06,28,06,12,19.90
2015,06,28,06,13,19.90
2015,06,28,06,14,19.90
2015,06,28,06,15,19.90
2015,06,28,06,16,19.90
2015,06,28,06,17,20.00
2015,06,28,06,18,20.10
2015,06,28,06,19,20.10
2015,06,28,06,20,20.20
2015,06,28,06,21,20.20
2015,06,28,06,22,20.20
2015,06,28,06,23,20.30
2015,06,28,06,24,20.40
2015,06,28,06,25,20.50
2015,06,28,06,26,20.50
2015,06,28,06,27,20.60
2015,06,28,06,28,20.70
2015,06,28,06,29,20.80
2015,06,28,06,30,20.80
2015,06,28,06,31,20.90
2015,06,28,06,32,21.00
2015,06,28,06,33,21.00
2015,06,28,06,34,21.10
2015,06,28,06,35,21.10
2015,06,28,06,36,21.20
2015,06,28,06,37,21.20
2015,06,28,06,38,21.30
2015,06,28,06,39,21.30
2015,06,28,06,40,21.30
2015,06,28,06,41,21.30
2015,06,28,06,42,21.30
2015,06,28,06,43,21.40
2015,06,28,06,44,21.40
2015,06,28,06,45,21.40
2015,06,28,06,46,21.40
2015,06,28,06,47,21.40
2015,06,28,06,48,21.50
2015,06,28,06,49,21.60
2015,06,28,06,50,21.60
2015,06,28,06,51,21.60
2015,06,28,06,52,21.60
2015,06,28,06,53,21.60
2015,06,28,06,54,21.60
2015,06,28,06,55,21.60
2015,06,28,06,56,21.60
2015,06,28,06,57,21.60
2015,06,28,06,58,21.60
2015,06,28,06,59,21.60
2015,06,28,07,00,21.60
2015,06,28,07,01,21.60
2015,06,28,07,02,21.60
2015,06,28,07,03,21.60
2015,06,28,07,04,21.60
2015,06,28,07,05,21.60
2015,06,28,07,06,21.60
2015,06,28,07,07,21.60
2015,06,28,07,08,21.60
2015,06,28,07,09,21.60
2015,06,28,07,10,21.60
2015,06,28,07,11,21.60
2015,06,28,07,12,21.60
2015,06,28,07,13,21.60
2015,06,28,07,14,21.60
2015,06,28,07,15,21.60
2015,06,28,07,16,21.60
2015,06,28,07,17,21.60
2015,06,28,07,18,21.70
2015,06,28,07,19,21.70
2015,06,28,07,20,21.70
2015,06,28,07,21,21.80
2015,06,28,07,22,21.80
2015,06,28,07,23,21.80
2015,06,28,07,24,21.90
2015,06,28,07,25,21.90
2015,06,28,07,26,21.90
2015,06,28,07,27,22.00
2015,06,28,07,28,22.00
2015,06,28,07,29,22.00
2015,06,28,07,30,22.00
2015,06,28,07,31,22.10
2015,06,28,07,32,22.10
2015,06,28,07,33,22.10
2015,06,28,07,34,22.10
2015,06,28,07,35,22.20
2015,06,28,07,36,22.20
2015,06,28,07,37,22.30
2015,06,28,07,38,22.40
2015,06,28,07,39,22.40
2015,06,28,07,40,22.50
2015,06,28,07,41,22.60
2015,06,28,07,42,22.60
2015,06,28,07,43,22.70
2015,06,28,07,44,22.70
2015,06,28,07,45,22.70
2015,06,28,07,46,22.80
2015,06,28,07,47,22.80
2015,06,28,07,48,22.80
2015,06,28,07,49,22.80
2015,06,28,07,50,22.80
2015,06,28,07,51,22.90
2015,06,28,07,52,22.90
2015,06,28,07,53,22.90
2015,06,28,07,54,22.90
2015,06,28,07,55,22.90
2015,06,28,07,56,23.00
2015,06,28,07,57,22.90
2015,06,28,07,58,22.90
2015,06,28,07,59,22.90
2015,06,28,08,00,22.90
2015,06,28,08,01,22.90
2015,06,28,08,02,22.90
2015,06,28,08,03,22.90
2015,06,28,08,04,22.90
2015,06,28,08,05,22.90
2015,06,28,08,06,22.90
2015,06,28,08,07,22.90
2015,06,28,08,08,22.90
2015,06,28,08,09,22.90
2015,06,28,08,10,22.90
2015,06,28,08,11,22.90
2015,06,28,08,12,23.00
2015,06,28,08,13,23.10
2015,06,28,08,14,23.10
2015,06,28,08,15,23.20
2015,06,28,08,16,23.30
2015,06,28,08,17,23.30
2015,06,28,08,18,23.50
2015,06,28,08,19,23.60
2015,06,28,08,20,23.70
2015,06,28,08,21,23.70
2015,06,28,08,22,23.80
2015,06,28,08,23,23.80
2015,06,28,08,24,23.90
2015,06,28,08,25,24.00
2015,06,28,08,26,24.10
2015,06,28,08,27,24.20
2015,06,28,08,28,24.30
2015,06,28,08,29,24.50
2015,06,28,08,30,24.60
2015,06,28,08,31,24.70
2015,06,28,08,32,24.80
2015,06,28,08,33,24.90
2015,06,28,08,34,25.00
2015,06,28,08,35,25.10
2015,06,28,08,36,25.20
2015,06,28,08,37,25.30
2015,06,28,08,38,25.40
2015,06,28,08,39,25.40
2015,06,28,08,40,25.40
2015,06,28,08,41,25.40
2015,06,28,08,42,25.50
2015,06,28,08,43,25.50
2015,06,28,08,44,25.60
2015,06,28,08,45,25.60
2015,06,28,08,46,25.70
2015,06,28,08,47,25.80
2015,06,28,08,48,25.90
2015,06,28,08,49,26.00
2015,06,28,08,50,26.20
2015,06,28,08,51,26.30
2015,06,28,08,52,26.40
2015,06,28,08,53,26.60
2015,06,28,08,54,26.70
2015,06,28,08,55,26.80
2015,06,28,08,56,26.80
2015,06,28,08,57,26.90
2015,06,28,08,58,26.90
2015,06,28,08,59,26.90
2015,06,28,09,00,26.90
2015,06,28,09,01,27.10
2015,06,28,09,02,26.90
2015,06,28,09,03,26.90
2015,06,28,09,04,27.00
2015,06,28,09,05,27.10
2015,06,28,09,06,27.10
2015,06,28,09,07,27.10
2015,06,28,09,08,27.10
2015,06,28,09,09,27.10
2015,06,28,09,10,27.00
2015,06,28,09,11,26.90
2015,06,28,09,12,26.90
2015,06,28,09,13,26.90
2015,06,28,09,14,26.90
2015,06,28,09,15,26.90
2015,06,28,09,16,26.90
2015,06,28,09,17,26.80
2015,06,28,09,18,26.80
2015,06,28,09,19,26.80
2015,06,28,09,20,26.80
2015,06,28,09,21,26.80
2015,06,28,09,22,26.80
2015,06,28,09,23,26.80
2015,06,28,09,24,26.80
2015,06,28,09,25,26.80
2015,06,28,09,26,26.70
2015,06,28,09,27,26.70
2015,06,28,09,28,26.70
2015,06,28,09,29,26.60
2015,06,28,09,30,26.60
2015,06,28,09,31,26.60
2015,06,28,09,32,26.50
2015,06,28,09,33,26.40
2015,06,28,09,34,26.40
2015,06,28,09,35,26.40
2015,06,28,09,36,26.30
2015,06,28,09,37,26.30
2015,06,28,09,38,26.30
2015,06,28,09,39,26.30
2015,06,28,09,40,26.30
2015,06,28,09,41,26.30
2015,06,28,09,42,26.30
2015,06,28,09,43,26.30
2015,06,28,09,44,26.30
2015,06,28,09,45,26.30
2015,06,28,09,46,26.40
2015,06,28,09,47,26.40
2015,06,28,09,48,26.40
2015,06,28,09,49,26.40
2015,06,28,09,50,26.50
2015,06,28,09,51,26.60
2015,06,28,09,52,26.60
2015,06,28,09,53,26.60
2015,06,28,09,54,26.60
2015,06,28,09,55,26.60
2015,06,28,09,56,26.70
2015,06,28,09,57,26.70
2015,06,28,09,58,26.70
2015,06,28,09,59,26.80
2015,06,28,10,00,26.80
2015,06,28,10,01,26.90
2015,06,28,10,02,26.90
2015,06,28,10,03,27.10
2015,06,28,10,04,27.10
2015,06,28,10,05,27.20
2015,06,28,10,06,27.20
2015,06,28,10,07,27.30
2015,06,28,10,08,27.30
2015,06,28,10,09,27.30
2015,06,28,10,10,27.40
2015,06,28,10,11,27.40
2015,06,28,10,12,27.50
2015,06,28,10,13,27.60
2015,06,28,10,14,27.60
2015,06,28,10,15,27.70
2015,06,28,10,16,27.80
2015,06,28,10,17,27.90
2015,06,28,10,18,27.90
2015,06,28,10,19,28.00
2015,06,28,10,20,28.10
2015,06,28,10,21,28.10
2015,06,28,10,22,28.20
2015,06,28,10,23,28.30
2015,06,28,10,24,28.30
2015,06,28,10,25,28.40
2015,06,28,10,26,28.40
2015,06,28,10,27,28.60
2015,06,28,10,28,28.60
2015,06,28,10,29,28.60
2015,06,28,10,30,28.60
2015,06,28,10,31,28.60
2015,06,28,10,32,28.50
2015,06,28,10,33,28.40
2015,06,28,10,34,28.40
2015,06,28,10,35,28.40
2015,06,28,10,36,28.50
2015,06,28,10,37,28.60
2015,06,28,10,38,28.60
2015,06,28,10,39,28.60
2015,06,28,10,40,28.60
2015,06,28,10,41,28.60
2015,06,28,10,42,28.60
2015,06,28,10,43,28.60
2015,06,28,10,44,28.50
2015,06,28,10,45,28.60
2015,06,28,10,46,28.60
2015,06,28,10,47,28.60
2015,06,28,10,48,28.70
2015,06,28,10,49,28.80
2015,06,28,10,50,28.90
2015,06,28,10,51,28.90
2015,06,28,10,52,28.90
2015,06,28,10,53,29.00
2015,06,28,10,54,28.90
2015,06,28,10,55,28.90
2015,06,28,10,56,28.90
2015,06,28,10,57,28.90
2015,06,28,10,58,28.90
2015,06,28,10,59,28.90
2015,06,28,11,00,28.90
2015,06,28,11,01,28.90
2015,06,28,11,02,28.90
2015,06,28,11,03,28.90
2015,06,28,11,04,28.90
2015,06,28,11,05,28.90
2015,06,28,11,06,28.90
2015,06,28,11,07,28.90
2015,06,28,11,08,28.90
2015,06,28,11,09,28.90
2015,06,28,11,10,28.90
2015,06,28,11,11,28.90
2015,06,28,11,12,28.90
2015,06,28,11,13,28.90
2015,06,28,11,14,28.90
2015,06,28,11,15,28.90
2015,06,28,11,16,28.90
2015,06,28,11,17,28.90
2015,06,28,11,18,28.90
2015,06,28,11,19,28.90
2015,06,28,11,20,28.90
2015,06,28,11,21,28.90
2015,06,28,11,22,28.90
2015,06,28,11,23,28.90
2015,06,28,11,24,28.90
2015,06,28,11,25,28.90
2015,06,28,11,26,28.90
2015,06,28,11,27,28.90
2015,06,28,11,28,28.90
2015,06,28,11,29,28.90
2015,06,28,11,30,28.90
2015,06,28,11,31,28.80
2015,06,28,11,32,28.70
2015,06,28,11,33,28.50
2015,06,28,11,34,28.30
2015,06,28,11,35,28.10
2015,06,28,11,36,28.00
2015,06,28,11,37,27.90
2015,06,28,11,38,27.80
2015,06,28,11,39,27.70
2015,06,28,11,40,27.60
2015,06,28,11,41,27.50
2015,06,28,11,42,27.40
2015,06,28,11,43,27.30
2015,06,28,11,44,27.30
2015,06,28,11,45,27.20
2015,06,28,11,46,27.10
2015,06,28,11,47,27.00
2015,06,28,11,48,26.80
2015,06,28,11,49,26.70
2015,06,28,11,50,26.60
2015,06,28,11,51,26.60
2015,06,28,11,52,26.50
2015,06,28,11,53,26.40
2015,06,28,11,54,26.30
2015,06,28,11,55,26.30
2015,06,28,11,56,26.20
2015,06,28,11,57,26.20
2015,06,28,11,58,26.10
2015,06,28,11,59,26.00
2015,06,28,12,00,26.00
2015,06,28,12,01,25.90
2015,06,28,12,02,25.90
2015,06,28,12,03,25.90
2015,06,28,12,04,25.90
2015,06,28,12,05,25.90
2015,06,28,12,06,25.90
2015,06,28,12,07,25.90
2015,06,28,12,08,25.90
2015,06,28,12,09,25.90
2015,06,28,12,10,25.90
2015,06,28,12,11,25.90
2015,06,28,12,12,25.90
2015,06,28,12,13,25.90
2015,06,28,12,14,25.90
2015,06,28,12,15,25.90
2015,06,28,12,16,25.90
2015,06,28,12,17,25.90
2015,06,28,12,18,25.90
2015,06,28,12,19,25.90
2015,06,28,12,20,25.90
2015,06,28,12,21,25.90
2015,06,28,12,22,25.90
2015,06,28,12,23,25.80
2015,06,28,12,24,25.80
2015,06,28,12,25,25.80
2015,06,28,12,26,25.70
2015,06,28,12,27,25.70
2015,06,28,12,28,25.70
2015,06,28,12,29,25.70
2015,06,28,12,30,25.70
2015,06,28,12,31,25.70
2015,06,28,12,32,25.70
2015,06,28,12,33,25.60
2015,06,28,12,34,25.60
2015,06,28,12,35,25.60
2015,06,28,12,36,25.60
2015,06,28,12,37,25.60
2015,06,28,12,38,25.60
2015,06,28,12,39,25.60
2015,06,28,12,40,25.60
2015,06,28,12,41,25.60
2015,06,28,12,42,25.60
2015,06,28,12,43,25.60
2015,06,28,12,44,25.60
2015,06,28,12,45,25.60
2015,06,28,12,46,25.60
2015,06,28,12,47,25.60
2015,06,28,12,48,25.60
2015,06,28,12,49,25.60
2015,06,28,12,50,25.60
2015,06,28,12,51,25.60
2015,06,28,12,52,25.60
2015,06,28,12,53,25.60
2015,06,28,12,54,25.60
2015,06,28,12,55,25.60
2015,06,28,12,56,25.60
2015,06,28,12,57,25.60
2015,06,28,12,58,25.70
2015,06,28,12,59,25.70
2015,06,28,13,00,25.70
2015,06,28,13,01,25.70
2015,06,28,13,02,25.70
2015,06,28,13,03,25.70
2015,06,28,13,04,25.70
2015,06,28,13,05,25.70
2015,06,28,13,06,25.70
2015,06,28,13,07,25.70
2015,06,28,13,08,25.70
2015,06,28,13,09,25.80
2015,06,28,13,10,25.80
2015,06,28,13,11,25.80
2015,06,28,13,12,25.80
2015,06,28,13,13,25.80
2015,06,28,13,14,25.80
2015,06,28,13,15,25.80
2015,06,28,13,16,25.90
2015,06,28,13,17,25.90
2015,06,28,13,18,25.90
2015,06,28,13,19,25.90
2015,06,28,13,20,25.90
2015,06,28,13,21,26.00
2015,06,28,13,22,26.00
2015,06,28,13,23,26.00
2015,06,28,13,24,26.00
2015,06,28,13,25,26.00
2015,06,28,13,26,26.00
2015,06,28,13,27,26.10
2015,06,28,13,28,26.10
2015,06,28,13,29,26.10
2015,06,28,13,30,26.10
2015,06,28,13,31,26.00
2015,06,28,13,32,26.00
2015,06,28,13,33,26.00
2015,06,28,13,34,26.00
2015,06,28,13,35,26.00
2015,06,28,13,36,26.00
2015,06,28,13,37,26.00
2015,06,28,13,38,26.00
2015,06,28,13,39,26.00
2015,06,28,13,40,26.00
2015,06,28,13,41,26.00
2015,06,28,13,42,25.90
2015,06,28,13,43,25.90
2015,06,28,13,44,25.90
2015,06,28,13,45,25.90
2015,06,28,13,46,25.80
2015,06,28,13,47,25.80
2015,06,28,13,48,25.80
2015,06,28,13,49,25.80
2015,06,28,13,50,25.80
2015,06,28,13,51,25.70
2015,06,28,13,52,25.70
2015,06,28,13,53,25.70
2015,06,28,13,54,25.70
2015,06,28,13,55,25.70
2015,06,28,13,56,25.60
2015,06,28,13,57,25.60
2015,06,28,13,58,25.60
2015,06,28,13,59,25.60
2015,06,28,14,00,25.60
2015,06,28,14,01,25.60
2015,06,28,14,02,25.50
2015,06,28,14,03,25.50
2015,06,28,14,04,25.50
2015,06,28,14,05,25.50
2015,06,28,14,06,25.50
2015,06,28,14,07,25.50
2015,06,28,14,08,25.50
2015,06,28,14,09,25.50
2015,06,28,14,10,25.50
2015,06,28,14,11,25.50
2015,06,28,14,12,25.50
2015,06,28,14,13,25.50
2015,06,28,14,14,25.50
2015,06,28,14,15,25.50
2015,06,28,14,16,25.50
2015,06,28,14,17,25.50
2015,06,28,14,18,25.50
2015,06,28,14,19,25.50
2015,06,28,14,20,25.60
2015,06,28,14,21,25.60
2015,06,28,14,22,25.60
2015,06,28,14,23,25.60
2015,06,28,14,24,25.60
2015,06,28,14,25,25.60
2015,06,28,14,26,25.60
2015,06,28,14,27,25.70
2015,06,28,14,28,25.70
2015,06,28,14,29,25.70
2015,06,28,14,30,25.70
2015,06,28,14,31,25.80
2015,06,28,14,32,25.80
2015,06,28,14,33,25.80
2015,06,28,14,34,25.80
2015,06,28,14,35,25.80
2015,06,28,14,36,25.80
2015,06,28,14,37,25.80
2015,06,28,14,38,25.80
2015,06,28,14,39,25.80
2015,06,28,14,40,25.80
2015,06,28,14,41,25.80
2015,06,28,14,42,25.80
2015,06,28,14,43,25.80
2015,06,28,14,44,25.80
2015,06,28,14,45,25.80
2015,06,28,14,46,25.80
2015,06,28,14,47,25.70
2015,06,28,14,48,25.70
2015,06,28,14,49,25.70
2015,06,28,14,50,25.60
2015,06,28,14,51,25.60
2015,06,28,14,52,25.50
2015,06,28,14,53,25.50
2015,06,28,14,54,25.50
2015,06,28,14,55,25.40
2015,06,28,14,56,25.40
2015,06,28,14,57,25.40
2015,06,28,14,58,25.40
2015,06,28,14,59,25.40
2015,06,28,15,00,25.30
2015,06,28,15,01,25.30
2015,06,28,15,02,25.30
2015,06,28,15,03,25.30
2015,06,28,15,04,25.20
2015,06,28,15,05,25.20
2015,06,28,15,06,25.10
2015,06,28,15,07,25.10
2015,06,28,15,08,25.00
2015,06,28,15,09,25.00
2015,06,28,15,10,24.90
2015,06,28,15,11,24.90
2015,06,28,15,12,24.90
2015,06,28,15,13,24.80
2015,06,28,15,14,24.80
2015,06,28,15,15,24.70
2015,06,28,15,16,24.70
2015,06,28,15,17,24.70
2015,06,28,15,18,24.70
2015,06,28,15,19,24.60
2015,06,28,15,20,24.60
2015,06,28,15,21,24.60
2015,06,28,15,22,24.50
2015,06,28,15,23,24.50
2015,06,28,15,24,24.50
2015,06,28,15,25,24.50
2015,06,28,15,26,24.50
2015,06,28,15,27,24.50
2015,06,28,15,28,24.50
2015,06,28,15,29,24.40
2015,06,28,15,30,24.40
2015,06,28,15,31,24.40
2015,06,28,15,32,24.40
2015,06,28,15,33,24.40
2015,06,28,15,34,24.30
2015,06,28,15,35,24.30
2015,06,28,15,36,24.30
2015,06,28,15,37,24.30
2015,06,28,15,38,24.30
2015,06,28,15,39,24.30
2015,06,28,15,40,24.20
2015,06,28,15,41,24.20
2015,06,28,15,42,24.20
2015,06,28,15,43,24.20
2015,06,28,15,44,24.20
2015,06,28,15,45,24.20
2015,06,28,15,46,24.20
2015,06,28,15,47,24.20
2015,06,28,15,48,24.20
2015,06,28,15,49,24.20
2015,06,28,15,50,24.20
2015,06,28,15,51,24.10
2015,06,28,15,52,24.10
2015,06,28,15,53,24.10
2015,06,28,15,54,24.10
2015,06,28,15,55,24.10
2015,06,28,15,56,24.10
2015,06,28,15,57,24.10
2015,06,28,15,58,24.10
2015,06,28,15,59,24.10
2015,06,28,16,00,24.10
2015,06,28,16,01,24.10
2015,06,28,16,02,24.10
2015,06,28,16,03,23.90
2015,06,28,16,04,23.90
2015,06,28,16,05,23.90
2015,06,28,16,06,23.90
2015,06,28,16,07,23.90
2015,06,28,16,08,23.90
2015,06,28,16,09,23.90
2015,06,28,16,10,23.90
2015,06,28,16,11,23.90
2015,06,28,16,12,23.90
2015,06,28,16,13,24.00
2015,06,28,16,14,24.10
2015,06,28,16,15,24.10
2015,06,28,16,16,24.10
2015,06,28,16,17,24.10
2015,06,28,16,18,24.10
2015,06,28,16,19,24.10
2015,06,28,16,20,24.00
2015,06,28,16,21,23.90
2015,06,28,16,22,23.90
2015,06,28,16,23,23.90
2015,06,28,16,24,23.80
2015,06,28,16,25,23.70
2015,06,28,16,26,23.70
2015,06,28,16,27,23.70
2015,06,28,16,28,23.60
2015,06,28,16,29,23.60
2015,06,28,16,30,23.50
2015,06,28,16,31,23.40
2015,06,28,16,32,23.40
2015,06,28,16,33,23.40
2015,06,28,16,34,23.40
2015,06,28,16,35,23.30
2015,06,28,16,36,23.30
2015,06,28,16,37,23.30
2015,06,28,16,38,23.30
2015,06,28,16,39,23.30
2015,06,28,16,40,23.30
2015,06,28,16,41,23.30
2015,06,28,16,42,23.30
2015,06,28,16,43,23.30
2015,06,28,16,44,23.30
2015,06,28,16,45,23.40
2015,06,28,16,46,23.40
2015,06,28,16,47,23.40
2015,06,28,16,48,23.40
2015,06,28,16,49,23.40
2015,06,28,16,50,23.40
2015,06,28,16,51,23.40
2015,06,28,16,52,23.40
2015,06,28,16,53,23.40
2015,06,28,16,54,23.40
2015,06,28,16,55,23.40
2015,06,28,16,56,23.40
2015,06,28,16,57,23.40
2015,06,28,16,58,23.40
2015,06,28,16,59,23.40
2015,06,28,17,00,23.50
2015,06,28,17,01,23.60
2015,06,28,17,02,23.60
2015,06,28,17,03,23.60
2015,06,28,17,04,23.60
2015,06,28,17,05,23.60
2015,06,28,17,06,23.60
2015,06,28,17,07,23.60
2015,06,28,17,08,23.60
2015,06,28,17,09,23.60
2015,06,28,17,10,23.60
2015,06,28,17,11,23.60
2015,06,28,17,12,23.60
2015,06,28,17,13,23.60
2015,06,28,17,14,23.50
2015,06,28,17,15,23.40
2015,06,28,17,16,23.40
2015,06,28,17,17,23.40
2015,06,28,17,18,23.40
2015,06,28,17,19,23.30